PAS990 WAQQ-WALL

Flight info

Callsign PAS990
Flight time 0h 41m
Altitude 14000
Route SOSVO DCT LELEB
Aircraft AT75/M-SDFGIRY/S

Departure

Time 2026-04-28 12:06
Airport Juwata International Airport / Suharnoko Harbani AFB (WAQQ)

Arrival

Time 2026-04-28 12:47
Airport Sultan Aji Muhammad Sulaiman Sepinggan International Airport (WALL)
Time Latitude Longitude Altitude Speed Heading
2026-04-28 11:34 3.32591 117.56832 41 ft 0 kts 150°
2026-04-28 11:58 3.32605 117.56823 41 ft 4 kts 131°
2026-04-28 11:59 3.32617 117.56801 41 ft 4 kts 101°
2026-04-28 11:59 3.32619 117.56791 41 ft 0 kts 100°
2026-04-28 12:02 3.32619 117.56792 41 ft 0 kts 78°
2026-04-28 12:02 3.32622 117.56796 41 ft 2 kts 53°
2026-04-28 12:02 3.32634 117.56811 41 ft 4 kts 47°
2026-04-28 12:02 3.32672 117.56866 41 ft 12 kts 59°
2026-04-28 12:03 3.32712 117.56930 42 ft 8 kts 39°
2026-04-28 12:03 3.32758 117.56920 42 ft 7 kts 332°
2026-04-28 12:03 3.32817 117.56910 41 ft 9 kts 32°
2026-04-28 12:03 3.32852 117.56965 42 ft 9 kts 61°
2026-04-28 12:04 3.32886 117.57020 43 ft 18 kts 56°
2026-04-28 12:04 3.32971 117.57153 44 ft 20 kts 59°
2026-04-28 12:04 3.33006 117.57259 46 ft 11 kts 50°
2026-04-28 12:04 3.33032 117.57253 46 ft 6 kts 275°
2026-04-28 12:05 3.32986 117.57180 43 ft 24 kts 239°
2026-04-28 12:05 3.32815 117.56904 41 ft 74 kts 238°
2026-04-28 12:05 3.32443 117.56302 36 ft 129 kts 237°
2026-04-28 12:05 3.31909 117.55485 247 ft 136 kts 238°
2026-04-28 12:06 3.31330 117.54671 488 ft 153 kts 230°
2026-04-28 12:06 3.30603 117.53811 954 ft 160 kts 231°
2026-04-28 12:06 3.29963 117.52937 1469 ft 151 kts 210°
2026-04-28 12:06 3.29167 117.53092 370 ft 96 kts 79°
2026-04-28 12:07 3.29175 117.53137 3 ft 0 kts 223°
2026-04-28 12:07 3.29175 117.53138 2 ft 0 kts 137°
2026-04-28 12:07 3.29176 117.53139 4 ft 2 kts 46°
2026-04-28 12:07 3.29221 117.53167 3 ft 7 kts 28°
2026-04-28 12:08 3.29269 117.53193 3 ft 8 kts 29°
2026-04-28 12:08 3.29316 117.53220 3 ft 8 kts 33°
2026-04-28 12:08 3.29298 117.53231 3 ft 8 kts 236°
2026-04-28 12:08 3.29271 117.53184 3 ft 8 kts 240°
2026-04-28 12:09 3.29243 117.53137 3 ft 8 kts 238°
2026-04-28 12:09 3.29211 117.53089 3 ft 8 kts 235°
2026-04-28 12:09 3.29179 117.53045 3 ft 8 kts 233°
2026-04-28 12:09 3.29145 117.53003 3 ft 8 kts 231°
2026-04-28 12:10 3.29110 117.52961 3 ft 8 kts 228°
2026-04-28 12:10 3.29073 117.52921 3 ft 8 kts 226°
2026-04-28 12:10 3.26016 117.52769 3764 ft 19 kts 269°
2026-04-28 12:10 3.24822 117.53044 1374 ft 205 kts 159°
2026-04-28 12:11 3.24522 117.53205 3962 ft 66 kts 33°
2026-04-28 12:11 3.24155 117.52956 2444 ft 161 kts 208°
2026-04-28 12:11 3.23781 117.52484 3864 ft 72 kts 253°
2026-04-28 12:11 3.23349 117.51839 3474 ft 117 kts 192°
2026-04-28 12:12 3.22507 117.51724 3682 ft 139 kts 174°
2026-04-28 12:12 3.21414 117.51783 3746 ft 171 kts 174°
2026-04-28 12:12 3.20293 117.51845 3991 ft 186 kts 175°
2026-04-28 12:12 3.18982 117.51869 4458 ft 190 kts 178°
2026-04-28 12:13 3.17653 117.51834 4951 ft 192 kts 181°
2026-04-28 12:13 3.16372 117.51740 5407 ft 193 kts 184°
2026-04-28 12:13 3.15029 117.51598 5824 ft 195 kts 185°
2026-04-28 12:13 3.13689 117.51461 5986 ft 191 kts 181°
2026-04-28 12:14 3.12372 117.51365 5971 ft 188 kts 182°
2026-04-28 12:14 3.11076 117.51241 5961 ft 186 kts 184°
2026-04-28 12:14 3.09800 117.51097 5956 ft 184 kts 184°
2026-04-28 12:14 3.08553 117.50948 5958 ft 180 kts 185°
2026-04-28 12:15 3.07372 117.50815 6247 ft 156 kts 182°
2026-04-28 12:15 3.06302 117.50729 6211 ft 153 kts 181°
2026-04-28 12:15 3.05243 117.50718 6101 ft 156 kts 155°
2026-04-28 12:15 3.04671 117.51633 5332 ft 176 kts 103°
2026-04-28 12:16 3.04014 117.52619 5282 ft 173 kts 143°
2026-04-28 12:16 3.02877 117.52860 5290 ft 171 kts 193°
2026-04-28 12:16 3.01793 117.52361 5312 ft 172 kts 206°
2026-04-28 12:16 3.00723 117.51837 5317 ft 170 kts 203°
2026-04-28 12:17 2.99645 117.51366 5321 ft 168 kts 201°
2026-04-28 12:17 2.98566 117.50923 5318 ft 167 kts 200°
2026-04-28 12:17 2.97478 117.50535 5315 ft 166 kts 196°
2026-04-28 12:17 2.96374 117.50208 5309 ft 164 kts 195°
2026-04-28 12:18 2.95281 117.49886 5298 ft 163 kts 194°
2026-04-28 12:18 2.94184 117.49611 5285 ft 161 kts 191°
2026-04-28 12:18 2.93093 117.49384 5278 ft 159 kts 189°
2026-04-28 12:18 2.92012 117.49197 5267 ft 156 kts 187°
2026-04-28 12:19 2.90945 117.49044 5257 ft 153 kts 186°
2026-04-28 12:19 2.89898 117.48913 5229 ft 150 kts 185°
2026-04-28 12:19 2.88867 117.48797 5182 ft 148 kts 185°
2026-04-28 12:19 2.87836 117.48825 4987 ft 157 kts 143°
2026-04-28 12:20 2.87414 117.49871 4147 ft 177 kts 104°
2026-04-28 12:20 2.86810 117.50896 4153 ft 173 kts 130°
2026-04-28 12:20 2.85827 117.51521 4248 ft 163 kts 165°
2026-04-28 12:20 2.84776 117.51618 4645 ft 135 kts 148°
2026-04-28 12:21 2.84524 117.52459 3374 ft 185 kts 66°
2026-04-28 12:21 2.84445 117.53588 3541 ft 159 kts 123°
2026-04-28 12:21 2.83698 117.54391 3564 ft 155 kts 134°
2026-04-28 12:21 2.82789 117.54873 3559 ft 150 kts 161°
2026-04-28 12:22 2.81741 117.55064 3471 ft 153 kts 160°
2026-04-28 12:22 2.81075 117.55771 3344 ft 161 kts 90°
2026-04-28 12:22 2.80856 117.56908 3352 ft 179 kts 133°
2026-04-28 12:22 2.79628 117.57252 3463 ft 204 kts 191°
2026-04-28 12:23 2.78393 117.56466 3560 ft 225 kts 233°
2026-04-28 12:23 2.77519 117.55083 3627 ft 237 kts 240°
2026-04-28 12:23 2.76695 117.53686 3635 ft 242 kts 238°
2026-04-28 12:23 2.75697 117.52259 3644 ft 251 kts 234°
2026-04-28 12:24 2.74549 117.50914 3634 ft 257 kts 227°
2026-04-28 12:24 2.73236 117.49722 3639 ft 261 kts 220°
2026-04-28 12:24 2.71752 117.48631 3626 ft 262 kts 214°
2026-04-28 12:24 2.70218 117.47756 3832 ft 253 kts 208°
2026-04-28 12:25 2.68619 117.47038 3926 ft 252 kts 202°
2026-04-28 12:25 2.66962 117.46447 3974 ft 253 kts 198°
2026-04-28 12:25 2.65221 117.46010 3993 ft 255 kts 191°
2026-04-28 12:25 2.59121 117.45327 4015 ft 263 kts 186°
2026-04-28 12:26 2.51794 117.44514 4020 ft 266 kts 187°
2026-04-28 12:26 2.44395 117.43710 4042 ft 270 kts 186°
2026-04-28 12:26 2.31824 117.42319 4023 ft 270 kts 186°
2026-04-28 12:26 2.16839 117.40769 4030 ft 270 kts 185°
2026-04-28 12:27 2.01829 117.39343 4056 ft 273 kts 185°
2026-04-28 12:27 1.86796 117.37873 4067 ft 271 kts 184°
2026-04-28 12:27 1.71881 117.36414 4020 ft 266 kts 185°
2026-04-28 12:27 1.58245 117.35094 4057 ft 266 kts 185°
2026-04-28 12:28 1.56271 117.34888 4153 ft 266 kts 185°
2026-04-28 12:28 1.54508 117.34717 4682 ft 244 kts 185°
2026-04-28 12:28 1.52874 117.34563 5205 ft 228 kts 185°
2026-04-28 12:28 1.51338 117.34413 5696 ft 216 kts 185°
2026-04-28 12:29 1.43942 117.33689 5943 ft 250 kts 185°
2026-04-28 12:29 1.29348 117.32265 5953 ft 268 kts 185°
2026-04-28 12:29 1.14503 117.30815 5946 ft 268 kts 185°
2026-04-28 12:30 0.99634 117.29328 5941 ft 268 kts 185°
2026-04-28 12:30 0.84802 117.27891 5938 ft 268 kts 185°
2026-04-28 12:30 0.69957 117.26447 5942 ft 267 kts 185°
2026-04-28 12:30 0.55129 117.24999 5932 ft 267 kts 185°
2026-04-28 12:31 0.40381 117.23559 5931 ft 266 kts 185°
2026-04-28 12:31 0.25661 117.22117 5928 ft 266 kts 185°
2026-04-28 12:31 0.10887 117.20678 5920 ft 266 kts 185°
2026-04-28 12:31 -0.03897 117.19243 5924 ft 267 kts 185°
2026-04-28 12:32 -0.15963 117.18066 5930 ft 268 kts 184°
2026-04-28 12:32 -0.23386 117.17337 5915 ft 267 kts 185°
2026-04-28 12:32 -0.25258 117.17155 5918 ft 267 kts 184°
2026-04-28 12:32 -0.27109 117.16976 5921 ft 268 kts 185°
2026-04-28 12:33 -0.28964 117.16796 5913 ft 268 kts 185°
2026-04-28 12:33 -0.31807 117.16519 5914 ft 267 kts 184°
2026-04-28 12:33 -0.38322 117.15883 5921 ft 267 kts 184°
2026-04-28 12:33 -0.44117 117.15320 5917 ft 267 kts 184°
2026-04-28 12:34 -0.47812 117.14958 5914 ft 267 kts 185°
2026-04-28 12:34 -0.51502 117.14597 5916 ft 267 kts 185°
2026-04-28 12:34 -0.55194 117.14238 5912 ft 266 kts 185°
2026-04-28 12:34 -0.62165 117.13558 5914 ft 267 kts 185°
2026-04-28 12:35 -0.68255 117.12966 5912 ft 266 kts 185°
2026-04-28 12:35 -0.72779 117.12522 5912 ft 266 kts 185°
2026-04-28 12:35 -0.77882 117.12026 5915 ft 266 kts 185°
2026-04-28 12:35 -0.79724 117.11846 5915 ft 266 kts 185°
2026-04-28 12:36 -0.81565 117.11666 5914 ft 266 kts 185°
2026-04-28 12:36 -0.83407 117.11487 5910 ft 266 kts 185°
2026-04-28 12:36 -0.85245 117.11308 5910 ft 266 kts 185°
2026-04-28 12:36 -0.87083 117.11129 5915 ft 265 kts 185°
2026-04-28 12:37 -0.88922 117.10950 5915 ft 265 kts 185°
2026-04-28 12:37 -0.90759 117.10770 5914 ft 265 kts 185°
2026-04-28 12:37 -0.92601 117.10590 5913 ft 266 kts 185°
2026-04-28 12:37 -0.94438 117.10413 6144 ft 265 kts 188°
2026-04-28 12:38 -0.96281 117.10249 6089 ft 266 kts 188°
2026-04-28 12:38 -0.98123 117.10074 6062 ft 266 kts 188°
2026-04-28 12:38 -0.99961 117.09894 6064 ft 265 kts 188°
2026-04-28 12:38 -1.00329 117.09858 6063 ft 265 kts 188°
2026-04-28 12:39 -1.01856 117.09704 6034 ft 245 kts 188°
2026-04-28 12:39 -1.03458 117.09530 5921 ft 219 kts 188°
2026-04-28 12:39 -1.04932 117.09380 5603 ft 208 kts 188°
2026-04-28 12:39 -1.06359 117.09239 5212 ft 204 kts 188°
2026-04-28 12:40 -1.07764 117.09106 4835 ft 201 kts 188°
2026-04-28 12:40 -1.09133 117.08976 4630 ft 190 kts 188°
2026-04-28 12:40 -1.10402 117.08862 4573 ft 177 kts 188°
2026-04-28 12:40 -1.11587 117.08758 4520 ft 168 kts 188°
2026-04-28 12:41 -1.12751 117.08647 4468 ft 167 kts 188°
2026-04-28 12:41 -1.13901 117.08537 4423 ft 165 kts 189°
2026-04-28 12:41 -1.15043 117.08425 4371 ft 164 kts 189°
2026-04-28 12:41 -1.16173 117.08318 4324 ft 162 kts 189°
2026-04-28 12:42 -1.17295 117.08208 4285 ft 161 kts 189°
2026-04-28 12:42 -1.18402 117.08083 4231 ft 156 kts 198°
2026-04-28 12:42 -1.19182 117.07445 4097 ft 151 kts 248°
2026-04-28 12:42 -1.19571 117.06385 3524 ft 171 kts 246°
2026-04-28 12:43 -1.20112 117.05337 3198 ft 172 kts 244°
2026-04-28 12:43 -1.20609 117.04258 2919 ft 170 kts 250°
2026-04-28 12:43 -1.21032 117.03161 2659 ft 168 kts 249°
2026-04-28 12:43 -1.21488 117.02101 2436 ft 164 kts 248°
2026-04-28 12:44 -1.21929 117.01061 2216 ft 161 kts 249°
2026-04-28 12:44 -1.22351 117.00043 2031 ft 151 kts 249°
2026-04-28 12:44 -1.22745 116.99105 1828 ft 145 kts 249°
2026-04-28 12:44 -1.23138 116.98176 1653 ft 142 kts 248°
2026-04-28 12:45 -1.23525 116.97273 1456 ft 141 kts 248°
2026-04-28 12:45 -1.23901 116.96395 1281 ft 138 kts 249°
2026-04-28 12:45 -1.24264 116.95514 1101 ft 137 kts 248°
2026-04-28 12:45 -1.24635 116.94647 938 ft 133 kts 249°
2026-04-28 12:46 -1.24974 116.93838 766 ft 119 kts 249°
2026-04-28 12:46 -1.25272 116.93106 626 ft 110 kts 249°
2026-04-28 12:46 -1.25594 116.92407 530 ft 112 kts 246°
2026-04-28 12:46 -1.25904 116.91683 412 ft 114 kts 250°
2026-04-28 12:47 -1.26200 116.90960 207 ft 110 kts 250°
2026-04-28 12:47 -1.26488 116.90283 19 ft 99 kts 250°
2026-04-28 12:47 -1.26600 116.90006 18 ft 33 kts 247°
2026-04-28 12:47 -1.26708 116.89728 20 ft 6 kts 279°
2026-04-28 12:48 -1.26694 116.89687 19 ft 14 kts 301°
2026-04-28 12:48 -1.26623 116.89654 18 ft 8 kts 340°
2026-04-28 12:48 -1.26554 116.89676 17 ft 10 kts 67°
2026-04-28 12:48 -1.26533 116.89728 17 ft 6 kts 66°
2026-04-28 12:49 -1.26505 116.89769 17 ft 8 kts 31°
2026-04-28 12:49 -1.26461 116.89768 17 ft 6 kts 324°
2026-04-28 12:49 -1.26445 116.89726 17 ft 7 kts 265°
2026-04-28 12:49 -1.26460 116.89674 17 ft 9 kts 250°
2026-04-28 12:50 -1.26453 116.89638 19 ft 10 kts 328°
2026-04-28 12:50 -1.26403 116.89617 18 ft 5 kts 337°